Change the Weather History Date:

Sunday, October 7, 2012

  Actual Average (KEKA) Record (KEKA)
Temperature  
Mean Temperature 54 °F 55 °F  
Max Temperature 64 °F 62 °F 76 °F (1969)
Min Temperature 44 °F 48 °F 41 °F (1955)
Degree Days  
Heating Degree Days 11 10  
Month to date heating degree days 68  
Since 1 July heating degree days 733  
Cooling Degree Days 0 0  
Month to date cooling degree days 0  
Year to date cooling degree days 0  
Growing Degree Days 4 (Base 50)    
Moisture  
Dew Point 49 °F    
Average Humidity 93    
Maximum Humidity 100    
Minimum Humidity 63    
Precipitation  
Precipitation 0.00 in 0.04 in 2.31 in (1889)
Month to date precipitation 0.25  
Year to date precipitation 24.61  
Since 1 July precipitation 1.33  
Snow  
Snow - 0.00 in 0.00 in (2002)
Month to date snowfall 0.0  
Since 1 July snowfall 0.0  
Since 1 September snowfall 0.0  
Snow Depth -    
Sea Level Pressure  
Sea Level Pressure 30.01 in    
Wind  
Wind Speed 2 mph ()    
Max Wind Speed 15 mph    
Max Gust Speed -    
Visibility 4.8 miles    
Events      
T = Trace of Precipitation, MM = Missing Value Source: Averaged Metar Reports

Daily Weather History Graph

Daily Weather History Graph

Search for Another Location

Airport or City:

Trip Planner

Search our weather history database for the weather conditions in past years. The results will help you decide how hot, cold, wet, or windy it might be!

Date:

Astronomy

Oct. 07, 2012 Rise Set
Actual Time 7:19 AM PDT 6:47 PM PDT
Civil Twilight 6:52 AM PDT 7:15 PM PDT
Nautical Twilight 6:20 AM PDT 7:46 PM PDT
Astronomical Twilight 5:49 AM PDT 8:18 PM PDT
Moon No Moon Rise 2:01 PM PDT (10/7)
Length of Visible Light 12h 22m
Length of Day
11h 28m
Waning Gibbous, 55% of the Moon is Illuminated
Oct 7
Waning Gibbous
Oct 8
Last Quarter
Oct 15
New
Oct 21
First Quarter
Oct 29
Full

Hourly Weather History & Observations

Time (PDT) Temp. Dew Point Humidity Pressure Visibility Wind Dir Wind Speed Gust Speed Precip Events Conditions
12:15 AM 48.2 °F 48.2 °F 100% 30.02 in 2.5 mi Calm Calm - N/A   Clear
12:35 AM 48.2 °F 48.2 °F 100% 30.01 in 1.8 mi Calm Calm - N/A   Clear
12:55 AM 48.2 °F 48.2 °F 100% 30.01 in 1.0 mi Calm Calm - N/A   Clear
1:15 AM 48.2 °F 48.2 °F 100% 30.01 in 0.2 mi Calm Calm - N/A   Mostly Cloudy
1:35 AM 48.2 °F 48.2 °F 100% 30.01 in 0.8 mi Calm Calm - N/A   Unknown
1:55 AM 46.4 °F 46.4 °F 100% 30.01 in 0.2 mi Calm Calm - N/A   Unknown
2:15 AM 46.4 °F 46.4 °F 100% 30.01 in 0.2 mi Calm Calm - N/A   Unknown
2:35 AM 48.2 °F 48.2 °F 100% 30.01 in 1.5 mi Calm Calm - N/A   Clear
2:55 AM 46.4 °F 46.4 °F 100% 30.01 in 0.5 mi Calm Calm - N/A   Unknown
3:15 AM 48.2 °F 48.2 °F 100% 30.01 in 5.0 mi Calm Calm - N/A   Clear
3:35 AM 46.4 °F 46.4 °F 100% 30.01 in 0.2 mi Calm Calm - N/A   Overcast
3:55 AM 44.6 °F 44.6 °F 100% 30.01 in 0.2 mi Calm Calm - N/A   Overcast
4:15 AM 46.4 °F 46.4 °F 100% 30.01 in 0.2 mi Calm Calm - N/A   Overcast
4:35 AM 44.6 °F 44.6 °F 100% 30.01 in 0.2 mi Calm Calm - N/A   Overcast
4:55 AM 44.6 °F 44.6 °F 100% 30.01 in 0.2 mi Calm Calm - N/A   Overcast
5:15 AM 44.6 °F 44.6 °F 100% 30.01 in 0.2 mi Calm Calm - N/A   Overcast
5:35 AM 46.4 °F 46.4 °F 100% 30.01 in 0.2 mi Calm Calm - N/A   Mostly Cloudy
5:55 AM 44.6 °F 44.6 °F 100% 30.00 in 0.2 mi Calm Calm - N/A   Overcast
6:15 AM 46.4 °F 46.4 °F 100% 30.00 in 0.2 mi Calm Calm - N/A   Overcast
6:35 AM 46.4 °F 46.4 °F 100% 30.00 in 0.2 mi Calm Calm - N/A   Overcast
6:55 AM 44.6 °F 44.6 °F 100% 30.01 in 0.2 mi Calm Calm - N/A   Overcast
7:35 AM 46.4 °F 46.4 °F 100% 30.02 in 0.2 mi Calm Calm - N/A   Overcast
7:55 AM 46.4 °F 46.4 °F 100% 30.02 in 10.0 mi Calm Calm - N/A   Scattered Clouds
8:15 AM 46.4 °F 46.4 °F 100% 30.03 in 7.0 mi Calm Calm - N/A   Mostly Cloudy
8:35 AM 48.2 °F 48.2 °F 100% 30.03 in 0.2 mi Calm Calm - N/A   Overcast
8:55 AM 46.4 °F 46.4 °F 100% 30.03 in 0.2 mi Calm Calm - N/A   Overcast
9:15 AM 48.2 °F 48.2 °F 100% 30.03 in 0.5 mi Calm Calm - N/A   Overcast
9:35 AM 50.0 °F 50.0 °F 100% 30.04 in 10.0 mi Calm Calm - N/A   Mostly Cloudy
9:55 AM 50.0 °F 50.0 °F 100% 30.03 in 10.0 mi Calm Calm - N/A   Partly Cloudy
10:15 AM 53.6 °F 53.6 °F 100% 30.03 in 10.0 mi Calm Calm - N/A   Clear
10:35 AM 55.4 °F 53.6 °F 94% 30.03 in 10.0 mi Calm Calm - N/A   Clear
10:55 AM 57.2 °F 53.6 °F 88% 30.02 in 10.0 mi Calm Calm - N/A   Clear
11:15 AM 59.0 °F 51.8 °F 77% 30.01 in 10.0 mi Calm Calm - N/A   Clear
11:35 AM 60.8 °F 53.6 °F 77% 30.01 in 10.0 mi Calm Calm - N/A   Clear
11:55 AM 62.6 °F 53.6 °F 72% 30.00 in 10.0 mi Calm Calm - N/A   Clear
12:35 PM 64.4 °F 53.6 °F 68% 29.99 in 10.0 mi Calm Calm - N/A   Clear
12:55 PM 64.4 °F 55.4 °F 73% 29.99 in 10.0 mi NW 8.1 mph - N/A   Clear
1:15 PM 62.6 °F 55.4 °F 77% 29.99 in 10.0 mi WNW 15.0 mph - N/A   Clear
1:35 PM 59.0 °F 53.6 °F 82% 29.99 in 10.0 mi NW 15.0 mph - N/A   Clear
1:55 PM 59.0 °F 51.8 °F 77% 29.98 in 10.0 mi NW 13.8 mph - N/A   Clear
2:15 PM 57.2 °F 50.0 °F 77% 29.98 in 10.0 mi NW 13.8 mph - N/A   Clear
2:35 PM 59.0 °F 48.2 °F 67% 29.98 in 10.0 mi NNW 13.8 mph - N/A   Clear
2:55 PM 59.0 °F 46.4 °F 63% 29.98 in 10.0 mi NNW 12.7 mph - N/A   Clear
3:15 PM 57.2 °F 46.4 °F 67% 29.98 in 10.0 mi NNW 13.8 mph - N/A   Clear
3:35 PM 57.2 °F 48.2 °F 72% 29.98 in 10.0 mi NW 11.5 mph - N/A   Clear
3:55 PM 57.2 °F 48.2 °F 72% 29.98 in 10.0 mi WNW 12.7 mph - N/A   Clear
4:15 PM 57.2 °F 46.4 °F 67% 29.98 in 10.0 mi NW 11.5 mph - N/A   Clear
4:35 PM 57.2 °F 48.2 °F 72% 29.98 in 10.0 mi NW 11.5 mph - N/A   Clear
4:55 PM 55.4 °F 50.0 °F 82% 29.98 in 10.0 mi NW 12.7 mph - N/A   Clear
5:15 PM 53.6 °F 50.0 °F 88% 29.98 in 10.0 mi NW 13.8 mph - N/A   Clear
5:35 PM 51.8 °F 50.0 °F 94% 29.98 in 10.0 mi WNW 11.5 mph - N/A   Clear
5:55 PM 50.0 °F 50.0 °F 100% 29.99 in 10.0 mi NW 11.5 mph - N/A   Clear
6:15 PM 48.2 °F 48.2 °F 100% 29.99 in 9.0 mi NW 11.5 mph - N/A   Scattered Clouds
6:35 PM 48.2 °F 48.2 °F 100% 30.00 in 5.0 mi NW 10.4 mph - N/A   Overcast
6:55 PM 48.2 °F 48.2 °F 100% 30.00 in 2.0 mi NW 3.5 mph - N/A   Overcast
7:15 PM 48.2 °F 48.2 °F 100% 30.00 in 3.0 mi Calm Calm - N/A   Overcast
7:35 PM 48.2 °F 48.2 °F 100% 30.01 in 3.0 mi Calm Calm - N/A   Overcast
7:55 PM 48.2 °F 48.2 °F 100% 30.01 in 5.0 mi Calm Calm - N/A   Overcast
8:15 PM 48.2 °F 48.2 °F 100% 30.02 in 3.0 mi Calm Calm - N/A   Overcast
8:35 PM 48.2 °F 48.2 °F 100% 30.02 in 1.5 mi Calm Calm - N/A   Overcast
8:55 PM 48.2 °F 48.2 °F 100% 30.02 in 3.0 mi Calm Calm - N/A   Overcast
9:15 PM 48.2 °F 48.2 °F 100% 30.02 in 1.0 mi Calm Calm - N/A   Overcast
9:35 PM 48.2 °F 48.2 °F 100% 30.02 in 0.8 mi Calm Calm - N/A   Overcast
9:55 PM 48.2 °F 48.2 °F 100% 30.02 in 1.0 mi Calm Calm - N/A   Overcast
10:15 PM 48.2 °F 48.2 °F 100% 30.02 in 1.8 mi Calm Calm - N/A   Overcast
10:35 PM 48.2 °F 48.2 °F 100% 30.02 in 2.0 mi Calm Calm - N/A   Overcast
10:55 PM 48.2 °F 48.2 °F 100% 30.02 in 2.5 mi Calm Calm - N/A   Overcast
11:15 PM 48.2 °F 48.2 °F 100% 30.03 in 3.0 mi Calm Calm - N/A   Overcast
11:35 PM 48.2 °F 48.2 °F 100% 30.02 in 2.5 mi Calm Calm - N/A   Overcast
11:55 PM 48.2 °F 48.2 °F 100% 30.03 in 2.5 mi Calm Calm - N/A   Overcast